カタログに戻る

STARLINK-37805

運用中通信VLEO
NORAD 100290·PAYLOAD·🇺🇸 United States

打ち上げ Aug 11, 2026 から Cape Canaveral Space Force Station

Loading…

次のパス (今後24時間)

TLE

古いSource: Space-Track

元期: Sep 10, 2026, 06:52 UTC

1 A0290U 26183U   26253.28656138  .00258748  00000-0  16783-2 0  9999
2 A0290  53.1590 307.4238 0006520 306.3191  53.7227 15.74701730  4701

AllMySatでSTARLINK-37805をリアルタイム追跡

Download on the App Store